« Back
NWS Peachtree City, Ga » Text Product » GA Regional Weather Roundup


Printer-friendly Version
Current Version              Previous Versions:   1  2  3  4  5  6  7  8  9  

Regional Weather Roundup

347
ASUS42 KFFC 232203
RWRGA
WEATHER ROUNDUP FOR GEORGIA
NATIONAL WEATHER SERVICE PEACHTREE CITY GA
600 PM EDT WED APR 23 2014

NOTE: "FAIR" INDICATES FEW OR NO CLOUDS BELOW 12,000 FEET WITH NO
SIGNIFICANT WEATHER AND/OR OBSTRUCTIONS TO VISIBILITY.

* = USE WITH CAUTION. THE STATIONS MARKED WITH AN ASTERISK MAY NOT
REPORT WEATHER SUCH AS PRECIPITATION, FOG, OR THUNDER AND ARE NOT
QUALITY CONTROLLED BY NWS.

THE REMARK "TC" DENOTES TEMPERATURE READING IN DEGREES CELSIUS.

GAZ001>058-232300-
NORTH GEORGIA

CITY           SKY/WX    TMP DP  RH WIND       PRES   REMARKS
ATLANTA        SUNNY     75  31  19 NW9       29.90S
ATHENS         SUNNY     81  31  16 NW6       29.85F
CHAMBLEE       SUNNY     75  37  25 NW12      29.89S
PEACHTREE CITY SUNNY     78  31  17 VRB7      29.90F
ROME           SUNNY     75  36  24 NE9G17    29.91F
WEST ATLANTA   SUNNY     76  33  21 NW9       29.90S
GAINESVILLE    SUNNY     78  21  12 W10       29.89R
CARTERSVILLE   SUNNY     74  31  20 N12       29.92S


CITY           SKY/WX    TMP DP  RH WIND       PRES   REMARKS
DALTON*        SUNNY     70  37  30 N8        29.94S
LAWRENCEVILLE* SUNNY     77  37  24 W12       29.88S
MARIETTA       SUNNY     76  35  23 W13       29.90F
KENNESAW*      SUNNY     73  34  23 NW9       29.92S
$$

GAZ059>098-102>109-232300-
CENTRAL GEORGIA

CITY           SKY/WX    TMP DP  RH WIND       PRES   REMARKS
AUGUSTA-BUSH   SUNNY     82  42  24 NE10      29.82S
AUGUSTA-DANIEL SUNNY     83  38  20 VRB5      29.84S
COLUMBUS       SUNNY     82  38  20 NE7       29.87F
MACON          SUNNY     82  37  20 NW9       29.86S
ROBINS AFB     SUNNY     83  42  23 W7        29.86S


CITY           SKY/WX    TMP DP  RH WIND       PRES   REMARKS
LAGRANGE*      SUNNY     79  38  22 W3        29.90S
SYLVANIA*      SUNNY     85  36  17 NW5       29.83S
MILLEDGEVILLE* SUNNY     82 N/A N/A W5        29.86R
$$

GAZ099>101-110>166-232300-
SOUTH GEORGIA

CITY           SKY/WX    TMP DP  RH WIND       PRES   REMARKS
SAVANNAH       SUNNY     84  49  29 NW12      29.83R
VALDOSTA       MOSUNNY   86  58  38 VRB5      29.86F
ALMA           MOSUNNY   82  54  37 NW6       29.85F
ST SIMONS      SUNNY     83  56  39 NW6       29.84S
FT STEWART     SUNNY     83  61  47 W10       29.82F
ALBANY         MOSUNNY   82  57  42 W7        29.89S
HUNTER AFB     SUNNY     84  51  31 W9        29.81S
MOODY AFB      SUNNY     83  60  45 W7        29.86S
BRUNSWICK      SUNNY     82  54  36 NW8       29.85S


CITY           SKY/WX    TMP DP  RH WIND       PRES   REMARKS
BAINBRIDGE*    MOSUNNY   84  63  48 N7        29.87F
MOULTRIE*      SUNNY     81  59  47 NW6       29.88S
VIDALIA*       SUNNY     82  50  32 NW9       29.85S
DOUGLAS*       MOSUNNY   81  57  44 N5        29.88S
$$



USA.gov is the U.S. government's official web portal to all federal, state and local government web resources and services.